Probability
0 0 3 3 0 0 0 0 0 0 0 0 0 0 0 0 0 0 0 0 0 0 0 0 0 0 0 0 0 0 0 0 0 0 0 0 0 0 0 0 0 0 0
0 0 3 3 0 0 0 0 0 0 0 0 0 0 0 0 0 0 0 0 0 0 0 0 0 0 0 0 0 0 0 0 0 0 0 0 0 0 0 0 0 0 0
0 0 3 3 0 0 0 0 0 0 0 0 0 0 0 0 0 0 0 0 0 0 0 0 0 0 0 0 0 0 0 0 0 0 0 0 0 0 0 0 0 0 0
0 0 3 6 3 0 0 0 0 0 0 0 0 0 0 0 0 0 0 0 0 0 0 0 0 0 0 0 0 0 0 0 0 0 0 0 0 0 0 0 0 0 0
0 0 3 10 3 0 0 0 0 0 0 0 0 0 0 0 0 0 0 0 0 0 0 0 0 0 0 0 0 0 0 0 0 0 0 0 0 0 0 0 0 0 0
0 0 3 10 0 0 0 0 0 0 0 0 0 0 0 0 0 0 0 0 0 0 0 0 0 0 0 0 0 0 0 0 0 0 0 0 0 0 0 0 0 0 0
0 0 0 10 0 0 0 0 0 0 0 0 0 0 0 0 0 0 0 0 0 0 0 0 0 0 0 0 0 0 0 0 0 0 0 0 0 0 0 0 0 0 0
0 0 0 6 3 0 0 0 0 0 0 0 0 0 0 0 0 0 0 0 0 0 0 0 0 0 0 0 0 0 0 0 0 0 0 0 0 0 0 0 0 0 0
0 0 0 0 0 0 0 0 0 0 0 0 0 0 0 0 0 0 0 0 0 0 0 0 0 0 0 0 0 0 0 0 0 0 0 0 0 0 0 0 0 0 0
0 0 0 0 0 0 0 0 0 0 0 0 0 0 0 0 0 0 0 0 0 0 0 0 0 0 0 0 0 0 0 0 0 0 0 0 0 0 0 0 0 0 0
0 0 0 0 0 0 0 0 0 0 0 0 0 0 0 0 0 0 0 0 0 0 0 0 0 0 0 0 0 0 0 0 0 0 0 0 0 0 0 0 0 0 0
0 0 0 0 0 0 0 0 0 0 0 0 0 0 0 0 0 0 0 0 0 0 0 0 0 0 0 0 0 0 0 0 0 0 0 0 0 0 0 0 0 0 0
0 0 0 0 0 0 0 0 0 0 0 0 0 0 0 0 0 0 0 0 0 0 0 0 0 0 0 0 0 0 0 0 0 0 0 0 0 0 0 0 0 0 0
0 0 0 0 0 0 0 0 0 0 0 0 0 0 0 0 0 0 0 0 0 0 0 0 0 0 0 0 0 0 0 0 0 0 0 0 0 0 0 0 0 0 0
0 0 0 0 0 0 0 0 0 0 0 0 0 0 0 0 0 0 0 0 0 0 0 0 0 0 0 0 0 0 0 0 0 0 0 0 0 0 0 0 0 0 0
0 0 0 0 0 0 0 0 0 0 0 0 0 0 0 0 0 0 0 0 0 0 0 0 0 0 0 0 0 0 0 0 0 0 0 0 0 0 0 0 0 0 0
0 0 0 0 0 0 0 0 0 0 0 0 0 0 0 0 0 0 0 0 0 0 0 0 0 0 0 0 0 0 0 0 0 0 0 0 0 0 0 0 0 0 0
0 0 0 0 0 0 0 0 0 0 0 0 0 0 0 0 0 0 0 0 0 0 0 0 0 0 0 0 0 0 0 0 0 0 0 0 0 0 0 0 0 0 0
0 0 0 0 0 0 0 0 0 0 0 0 0 0 0 0 0 0 0 0 0 0 0 0 0 0 0 0 0 0 0 0 0 0 0 0 0 0 0 0 0 0 0
0 0 0 0 0 0 0 0 0 0 0 0 0 0 0 0 0 0 0 0 0 0 0 0 0 0 0 0 0 0 0 0 0 0 0 0 0 0 0 0 0 0 0
0 0 0 0 0 0 0 0 0 0 0 0 0 0 0 0 0 0 0 0 0 0 0 0 0 0 0 0 0 0 0 0 0 0 0 0 0 0 0 0 0 0 0
0 0 0 0 0 0 0 0 0 0 0 0 0 0 0 0 0 0 0 0 0 0 0 0 0 0 0 0 0 0 0 0 0 0 0 0 0 0 0 0 0 0 0
0 0 0 0 0 0 0 0 0 0 0 0 0 0 0 0 0 0 0 0 0 0 0 0 0 0 0 0 0 0 0 0 0 0 0 0 0 0 0 0 0 0 0
0 0 0 0 0 0 0 0 0 0 0 0 0 0 0 0 0 0 0 0 0 0 0 0 0 0 0 0 0 0 0 0 0 0 0 0 0 0 0 0 0 0 0
0 0 0 0 0 0 0 0 0 0 0 0 0 0 0 0 0 0 0 0 0 0 0 0 0 0 0 0 0 0 0 0 0 0 0 0 0 0 0 0 0 0 0
0 0 0 0 0 0 0 0 0 0 0 0 0 0 0 0 0 0 0 0 0 0 0 0 0 0 0 0 0 0 0 0 0 0 0 0 0 0 0 0 0 0 0
Height
5869 5869 5869 5870 5870 5870 5871 5871 5871 5871 5871 5872 5872 5872 5873 5873 5873 5874 5874 5874 5875 5875 5875 5876 5876 5876 5876 5877 5877 5877 5878 5878 5878 5879 5879 5879 5880 5880 5881 5881 5882 5882 5882
5868 5867 5868 5868 5868 5868 5868 5868 5869 5869 5869 5869 5869 5870 5870 5870 5871 5871 5871 5872 5872 5872 5873 5873 5873 5873 5874 5874 5874 5874 5875 5875 5875 5876 5876 5877 5877 5877 5878 5878 5879 5879 5879
5866 5866 5866 5866 5866 5866 5866 5866 5866 5866 5866 5867 5867 5867 5867 5868 5868 5868 5869 5869 5869 5869 5870 5870 5870 5870 5870 5871 5871 5871 5872 5872 5872 5873 5873 5874 5874 5874 5875 5875 5875 5876 5876
5864 5864 5864 5864 5864 5864 5864 5863 5864 5864 5864 5864 5864 5864 5865 5865 5865 5865 5866 5866 5866 5866 5867 5867 5867 5867 5867 5868 5868 5868 5868 5869 5869 5870 5870 5870 5871 5871 5871 5872 5872 5872 5872
5862 5862 5862 5862 5862 5861 5861 5861 5861 5861 5861 5861 5861 5862 5862 5862 5862 5862 5863 5863 5863 5863 5864 5864 5864 5864 5864 5864 5865 5865 5865 5865 5866 5866 5867 5867 5867 5867 5867 5868 5868 5868 5869
5860 5860 5859 5859 5859 5859 5859 5858 5858 5858 5858 5858 5858 5858 5859 5859 5859 5859 5860 5860 5860 5860 5860 5861 5861 5861 5861 5861 5861 5862 5862 5862 5862 5863 5863 5863 5863 5863 5863 5864 5864 5864 5864
5858 5857 5857 5856 5856 5856 5856 5855 5855 5855 5855 5855 5855 5855 5855 5856 5856 5856 5856 5856 5857 5857 5857 5857 5857 5857 5858 5858 5858 5858 5858 5859 5859 5859 5859 5859 5859 5859 5859 5859 5860 5860 5860
5855 5855 5854 5853 5853 5853 5852 5852 5852 5852 5852 5852 5852 5852 5852 5852 5852 5852 5852 5853 5853 5853 5853 5853 5853 5853 5854 5854 5854 5854 5854 5855 5855 5855 5855 5855 5855 5855 5855 5855 5855 5855 5855
5852 5852 5851 5850 5850 5849 5849 5849 5848 5848 5848 5848 5848 5848 5848 5848 5848 5848 5848 5848 5849 5849 5849 5849 5849 5849 5849 5850 5850 5850 5850 5850 5850 5851 5851 5851 5851 5851 5851 5851 5851 5851 5851
5849 5849 5848 5847 5846 5846 5845 5845 5845 5844 5844 5844 5844 5844 5844 5844 5844 5844 5844 5844 5844 5844 5844 5844 5845 5845 5845 5845 5845 5845 5845 5845 5846 5846 5846 5846 5846 5846 5846 5846 5846 5846 5846
5846 5845 5845 5844 5843 5842 5842 5841 5841 5841 5840 5840 5840 5840 5840 5840 5840 5839 5839 5839 5839 5839 5839 5839 5839 5839 5840 5840 5840 5840 5840 5840 5840 5840 5840 5840 5840 5840 5840 5840 5840 5840 5840
5843 5842 5841 5841 5839 5839 5838 5837 5837 5836 5836 5836 5835 5835 5835 5835 5835 5834 5834 5834 5834 5833 5833 5833 5833 5834 5834 5834 5834 5834 5834 5834 5834 5834 5834 5834 5833 5833 5833 5833 5833 5833 5833
5839 5838 5837 5837 5836 5835 5834 5833 5833 5832 5831 5831 5831 5830 5830 5829 5829 5829 5828 5828 5828 5827 5827 5827 5827 5827 5827 5827 5827 5826 5826 5826 5826 5826 5826 5826 5826 5826 5826 5825 5825 5825 5825
5835 5834 5833 5832 5832 5831 5830 5829 5828 5827 5827 5826 5825 5825 5824 5824 5823 5823 5822 5822 5821 5821 5820 5820 5820 5819 5819 5819 5819 5818 5818 5818 5818 5818 5818 5817 5817 5817 5817 5816 5816 5816 5816
5832 5830 5829 5828 5827 5826 5825 5824 5823 5823 5822 5821 5820 5819 5818 5818 5817 5816 5816 5815 5814 5814 5813 5813 5812 5811 5811 5810 5810 5810 5809 5809 5809 5809 5809 5808 5807 5807 5807 5806 5806 5806 5806
5828 5827 5825 5824 5823 5822 5821 5820 5819 5818 5817 5816 5815 5813 5813 5812 5811 5810 5809 5808 5807 5806 5806 5805 5804 5803 5802 5801 5801 5800 5799 5799 5799 5799 5798 5798 5797 5796 5796 5795 5795 5795 5794
5824 5823 5821 5820 5819 5817 5816 5815 5814 5812 5811 5810 5809 5808 5806 5805 5804 5803 5802 5801 5800 5799 5798 5796 5795 5794 5793 5792 5791 5790 5790 5789 5788 5788 5787 5787 5786 5785 5784 5783 5783 5783 5782
5820 5819 5817 5816 5814 5813 5811 5810 5808 5807 5806 5804 5803 5802 5800 5799 5798 5796 5795 5793 5792 5791 5789 5788 5786 5785 5784 5783 5782 5780 5779 5779 5778 5777 5776 5775 5774 5774 5773 5771 5770 5770 5769
5816 5815 5813 5811 5810 5808 5807 5805 5803 5802 5800 5799 5797 5795 5794 5792 5791 5789 5788 5786 5784 5782 5781 5779 5777 5775 5774 5772 5771 5770 5769 5768 5766 5765 5764 5763 5762 5761 5760 5759 5758 5756 5756
5812 5811 5809 5807 5805 5803 5802 5800 5798 5796 5795 5793 5791 5789 5787 5785 5784 5782 5780 5778 5775 5774 5771 5769 5767 5765 5763 5761 5759 5758 5757 5756 5754 5753 5751 5749 5748 5747 5746 5745 5744 5743 5741
5808 5806 5804 5802 5800 5799 5797 5795 5793 5791 5789 5787 5785 5782 5780 5778 5776 5774 5771 5769 5766 5764 5761 5759 5756 5754 5752 5748 5746 5745 5744 5742 5741 5739 5737 5735 5734 5732 5730 5729 5728 5727 5726
5803 5801 5799 5797 5795 5793 5791 5789 5787 5785 5783 5780 5778 5775 5773 5770 5767 5765 5762 5759 5756 5754 5751 5747 5744 5741 5739 5735 5732 5729 5729 5730 5727 5724 5722 5720 5718 5716 5714 5712 5711 5710 5709
5798 5796 5794 5792 5790 5787 5785 5783 5780 5778 5775 5773 5770 5767 5764 5761 5758 5755 5752 5749 5746 5742 5739 5735 5732 5728 5725 5722 5717 5713 5710 5710 5710 5710 5706 5703 5700 5698 5697 5695 5693 5691 5689
5793 5791 5789 5786 5784 5781 5779 5776 5774 5771 5768 5765 5762 5759 5756 5752 5749 5745 5741 5738 5734 5730 5726 5722 5718 5714 5710 5706 5702 5697 5693 5689 5686 5687 5689 5685 5680 5677 5675 5673 5672 5670 5668
5787 5785 5782 5780 5777 5775 5772 5769 5766 5763 5760 5757 5753 5750 5746 5743 5738 5734 5730 5726 5721 5717 5712 5708 5703 5698 5693 5689 5685 5680 5675 5670 5665 5661 5662 5662 5659 5656 5651 5649 5646 5645 5643
5781 5779 5776 5773 5770 5767 5764 5761 5758 5755 5751 5748 5744 5740 5736 5732 5727 5723 5718 5713 5708 5703 5698 5692 5687 5682 5676 5670 5665 5659 5654 5649 5644 5638 5635 5634 5632 5631 5626 5623 5620 5617 5614
Wind_Speed
11 12 13 13 14 14 15 15 15 16 16 17 17 17 17 17 17 17 17 18 18 18 18 19 19 19 20 20 20 20 20 19 19 19 19 19 19 19 19 19 19 19 19
11 12 13 13 14 14 15 15 15 16 16 16 17 17 17 17 17 17 17 17 18 18 19 19 19 20 20 20 20 20 20 20 20 20 20 20 20 20 20 20 20 20 20
11 12 12 13 13 14 14 15 15 15 16 16 16 16 17 17 17 17 17 17 18 18 18 18 19 19 20 20 20 20 20 21 21 21 21 21 21 21 21 21 21 22 22
11 12 12 13 13 14 14 15 15 15 16 16 16 16 17 17 17 17 17 17 18 18 18 19 19 19 20 20 20 20 20 21 21 21 21 21 21 22 22 22 22 23 23
12 12 13 14 14 15 15 15 16 16 16 17 17 17 17 18 18 18 18 18 18 18 19 19 19 19 20 20 20 20 20 20 20 20 21 21 21 21 22 22 22 23 23
13 13 14 14 15 16 16 16 17 17 17 18 18 18 18 18 18 18 18 18 18 19 19 19 19 19 20 20 20 20 20 20 20 21 21 21 21 22 22 22 23 23 23
14 15 16 16 16 17 17 17 18 18 18 18 19 19 19 19 18 18 19 19 19 19 19 20 20 20 20 20 20 20 20 21 21 21 21 21 22 22 22 23 23 24 24
15 16 17 17 17 18 18 18 19 19 19 19 19 19 19 19 20 20 20 20 20 20 20 20 20 20 21 21 21 21 21 21 21 21 21 22 22 22 23 23 24 24 24
16 16 17 18 18 18 19 19 19 19 20 20 20 20 20 21 21 21 21 21 21 21 21 22 22 22 22 22 22 22 22 22 22 22 22 23 23 23 23 23 24 24 24
17 17 17 18 18 19 19 20 20 20 20 21 21 21 22 22 22 22 23 23 23 23 23 23 23 24 24 24 24 24 24 25 25 25 25 25 25 25 25 25 25 25 26
17 18 18 18 19 20 20 20 20 21 21 21 22 22 22 23 23 24 24 24 25 25 25 25 25 26 26 26 27 27 27 27 28 28 28 28 28 28 29 29 29 29 29
18 18 18 19 20 20 20 21 21 22 22 22 23 23 24 24 24 25 26 26 27 27 27 28 28 29 29 29 30 30 30 31 31 32 32 32 32 32 33 33 33 33 33
19 19 19 19 20 20 21 21 22 22 23 23 24 25 25 25 26 26 27 27 28 29 29 30 31 31 32 32 33 34 34 34 35 35 36 36 36 36 37 37 37 37 37
19 19 20 20 20 21 21 22 23 23 24 25 25 26 27 27 28 28 28 29 29 30 31 32 32 33 34 35 36 37 37 38 38 38 39 40 40 40 41 41 41 41 41
18 19 20 20 20 21 22 22 23 24 25 25 26 27 27 28 29 29 30 30 31 32 32 33 34 34 35 36 37 38 39 40 41 41 42 42 43 44 44 45 45 46 46
19 19 20 21 21 22 22 23 24 24 25 25 26 27 27 28 29 29 30 31 32 32 33 34 35 36 37 38 39 40 41 42 42 43 44 44 45 46 47 48 48 49 50
19 20 21 21 22 22 23 23 24 24 25 25 26 26 27 27 28 29 30 31 32 33 34 34 35 36 37 38 40 41 42 43 44 45 45 46 47 48 49 50 51 52 52
19 20 21 21 22 22 23 23 23 24 24 25 26 26 27 28 29 30 31 32 33 33 34 36 37 38 39 40 41 42 43 44 44 45 46 47 48 49 50 52 53 54 55
20 20 21 22 22 22 22 23 23 24 25 26 26 27 28 29 30 31 31 33 34 35 36 37 38 39 40 41 43 43 44 45 46 47 48 49 50 51 52 53 54 56 57
21 22 22 23 23 23 23 24 25 25 26 26 27 28 29 30 31 32 33 34 36 37 38 40 41 42 43 45 46 46 47 48 49 50 51 52 53 54 55 56 57 58 59
22 23 23 23 24 24 25 25 26 26 27 28 29 30 31 33 34 35 36 37 39 40 41 43 44 45 46 48 49 49 50 51 52 53 54 55 56 57 58 59 59 60 61
23 24 24 25 25 26 27 27 28 28 29 31 32 33 34 35 36 38 39 40 41 43 44 45 47 48 49 51 53 54 53 53 54 56 57 58 59 60 61 62 63 64 65
25 25 26 27 28 28 29 29 30 31 32 33 34 35 37 38 39 41 42 43 45 46 47 49 51 52 53 55 57 59 59 59 59 59 61 62 64 65 65 66 67 69 70
26 27 28 29 29 30 31 32 33 34 35 36 37 38 39 41 42 44 45 47 48 50 52 53 55 57 58 59 60 63 64 66 67 66 65 66 68 70 71 72 72 73 74
29 29 30 31 31 32 33 34 35 36 37 38 39 41 42 44 45 47 49 51 52 54 56 57 59 60 62 64 65 67 69 70 72 74 73 72 73 74 76 78 79 79 80
30 31 32 33 33 34 36 37 38 38 40 41 42 44 45 47 49 51 53 54 56 58 60 62 63 65 67 68 70 72 73 75 76 79 80 80 80 80 80 81 82 83 83
Wind_Direction
276 277 277 276 274 273 272 271 270 268 267 267 266 267 267 267 268 269 270 271 271 271 271 271 270 270 270 270 269 269 268 269 269 270 271 271 271 271 271 270 270 270 270
280 280 279 278 276 275 274 272 271 269 268 267 267 267 267 268 269 270 270 270 271 271 272 272 272 271 271 270 269 269 269 269 270 270 270 271 271 272 272 271 271 271 271
283 282 281 281 279 277 275 274 272 270 269 267 267 267 268 269 269 270 271 271 271 271 271 271 271 272 272 271 270 270 269 270 270 270 270 270 271 272 272 273 273 272 272
285 284 283 283 281 280 279 276 273 272 270 268 267 268 269 270 270 271 271 271 271 271 272 272 272 272 272 271 271 271 270 270 270 271 271 272 271 272 272 272 272 273 273
285 285 284 284 282 281 280 279 275 273 271 270 269 269 269 270 270 270 271 271 271 272 272 273 272 272 271 271 271 271 271 271 271 272 272 272 272 272 273 273 273 273 273
285 285 284 283 283 282 281 280 277 275 273 271 270 270 269 269 269 270 270 271 272 273 273 273 272 272 271 270 270 271 271 271 272 272 272 272 273 273 274 274 274 274 274
285 284 284 282 281 281 281 280 279 278 276 273 272 271 270 270 270 271 271 273 273 273 272 273 273 272 271 270 269 270 270 271 271 272 272 272 272 273 274 274 275 275 276
287 286 284 283 282 280 280 280 280 278 276 275 274 273 272 270 271 271 272 272 272 272 271 271 272 271 271 270 270 270 270 270 271 271 271 271 272 272 273 274 274 275 276
288 287 286 285 283 281 280 280 279 278 276 276 276 275 273 272 272 272 272 272 272 271 271 270 270 270 269 269 268 269 268 269 269 269 270 270 271 271 271 272 273 273 274
288 286 285 285 283 282 281 280 279 278 277 276 276 276 275 274 273 273 272 272 272 271 271 270 269 269 268 268 268 268 267 267 267 268 268 268 269 269 270 270 271 272 272
289 287 285 284 283 282 281 280 280 279 278 278 277 277 276 276 275 274 273 272 272 271 271 270 270 269 268 268 268 267 267 267 267 267 267 267 267 268 269 269 270 271 271
290 288 287 286 285 284 282 281 281 280 280 279 278 278 277 277 276 275 274 273 273 272 272 271 271 270 269 268 268 267 267 267 267 267 267 266 266 267 267 268 269 269 270
290 289 288 286 285 284 283 281 281 281 280 279 278 278 278 277 277 276 276 275 274 273 273 272 272 271 270 269 269 268 268 267 267 267 267 267 267 267 267 267 267 268 268
292 290 289 288 287 286 285 283 282 281 281 280 279 279 278 278 277 277 276 276 275 275 274 274 274 273 272 271 271 270 269 269 268 268 268 268 268 267 267 267 267 267 267
293 292 291 290 288 287 286 285 284 283 283 283 282 281 281 281 280 280 279 278 277 277 276 276 276 275 275 274 273 272 271 271 270 270 269 269 269 268 268 267 267 267 267
293 293 292 292 291 289 288 287 286 286 285 285 285 285 284 284 284 283 283 282 281 280 279 279 278 277 276 275 274 273 272 272 272 271 270 270 270 270 269 269 268 267 267
295 294 294 294 293 292 290 289 289 288 287 287 286 286 286 285 285 285 284 283 283 282 281 280 279 278 277 277 276 275 275 274 274 273 272 271 271 270 270 269 269 268 268
296 296 295 295 295 294 293 291 290 290 289 288 288 287 287 286 286 286 286 285 284 284 284 283 282 281 280 279 278 277 277 276 276 275 274 274 273 272 271 271 270 270 269
297 297 297 296 295 294 293 292 292 291 290 289 289 288 288 288 288 288 288 288 287 287 286 285 285 284 283 282 280 280 279 278 277 277 276 275 274 273 272 271 271 271 271
299 299 298 297 296 296 295 294 294 293 292 291 290 290 290 290 290 289 289 289 289 288 288 287 286 285 285 284 282 281 280 279 278 278 277 276 275 274 273 272 272 271 271
299 299 299 298 298 297 296 295 294 293 292 292 292 292 291 291 291 291 291 290 290 290 290 289 288 287 286 285 284 282 281 281 280 279 278 277 276 275 274 273 272 271 271
299 299 299 299 298 298 296 295 294 294 294 293 293 293 293 293 293 293 292 292 292 291 291 290 290 289 288 288 286 285 283 281 280 280 279 278 277 276 275 274 274 272 271
299 299 299 299 298 298 296 296 295 296 295 295 294 294 294 294 294 294 294 293 293 293 292 292 291 291 290 289 288 287 286 284 281 280 280 279 278 276 275 274 274 273 272
299 299 299 299 298 297 297 296 296 296 296 295 294 294 294 294 294 294 294 294 294 294 294 293 293 292 291 290 289 289 288 287 285 283 281 280 279 278 277 275 274 273 272
299 299 299 298 297 296 296 297 297 296 296 295 295 295 294 295 295 295 295 295 295 295 294 294 294 293 293 292 291 290 289 288 287 286 284 282 280 279 278 277 276 274 273
299 299 298 298 297 297 297 297 297 296 296 296 296 296 296 296 296 296 296 296 296 295 295 295 295 294 294 293 292 291 290 289 288 287 286 284 282 281 280 278 277 276 274